Overview Statistics Trail Chart Weather Telemetry Raw packets
 

This is the latest recevied weather packets stored in our database for station/object KC5DAQ-26. If no packets are shown the sender has not sent any weather packets the latest 10 day(s).

<< 534 535 536 537 538 539 540 >>
Time Temp. Humidity Pressure Rain* Wind** Luminosity Snow
1787790632 33.89° C 62% 1015 hPa 0 mm - 16 W/m² -
1787790572 33.89° C 62% 1015.2 hPa 0 mm - 18 W/m² -
1787790512 33.89° C 63% 1015.1 hPa 0 mm - 18 W/m² -
1787790452 33.89° C 63% 1015.1 hPa 0 mm - 21 W/m² -
1787790392 33.89° C 62% 1015.1 hPa 0 mm - 21 W/m² -
1787790333 33.33° C 64% 1015.2 hPa 0 mm - 21 W/m² -
1787790273 33.89° C 64% 1015.2 hPa 0 mm - 23 W/m² -
1787790213 33.89° C 61% 1015.2 hPa 0 mm - 25 W/m² -
1787790152 34.44° C 61% 1015.2 hPa 0 mm - 32 W/m² -
1787790093 34.44° C 61% 1015.2 hPa 0 mm - 32 W/m² -
1787790033 34.44° C 61% 1015.1 hPa 0 mm - 32 W/m² -
1787789955 34.44° C 61% 1015.1 hPa 0 mm - 32 W/m² -
1787789893 34.44° C 60% 1015.2 hPa 0 mm - 33 W/m² -
1787789830 34.44° C 61% 1015.1 hPa 0 mm - 35 W/m² -
1787789770 34.44° C 61% 1015.2 hPa 0 mm - 35 W/m² -
1787789709 34.44° C 59% 1015.1 hPa 0 mm - 40 W/m² -
1787789646 34.44° C 60% 1015.2 hPa 0 mm - 44 W/m² -
1787789585 34.44° C 59% 1015.1 hPa 0 mm - 48 W/m² -
1787789523 34.44° C 60% 1015.1 hPa 0 mm - 49 W/m² -
1787789463 34.44° C 61% 1015.1 hPa 0 mm - 53 W/m² -
1787789404 34.44° C 60% 1015.1 hPa 0 mm - 55 W/m² -
1787789343 34.44° C 59% 1015.2 hPa 0 mm - 56 W/m² -
1787789282 34.44° C 59% 1015.1 hPa 0 mm - 60 W/m² -
1787789222 34.44° C 59% 1015.1 hPa 0 mm - 63 W/m² -
1787789161 34.44° C 59% 1015.1 hPa 0 mm - 65 W/m² -

* Rain latest hour (hover to see other rain measurements)
** Current wind speed in m/s (hover to see current wind gust speed)